www.pogodaiklimat.ru

Погода и климат >> Архив погоды >> Финляндия >> Остров Хармая


ПОГОДА на Острове Хармая

  • Прогноз погоды на Острове Хармая
  • Монитор погоды на Острове Хармая

АРХИВ ПОГОДЫ на Острове Хармая

Время (UTC), дата Ветер
(напр.,м/с)
 
Видим.   Явления Облачность Т
(С)
Тd
(С)
f
(%)
Тe
(С)
Тes
(С)
Комфортность P
(гПа)
Po
(гПа)
Тmin
(С)
Tmax
(С)
R
(мм)
R24
(мм)
S
(см)
13 18.06 ЮЗ 13 22 км ясно +14.6 1015.9 1014.6
14 18.06 ЮЗ 13 30 км ясно +14.6 1015.9 1014.6
15 18.06 ЮЗ 11-13
{15}
24 км ясно +14.4 +11.9 85 +12 +12 1015.7 1014.5
16 18.06 ЮЗ 11-13
{14}
17 км ясно +14.1 +12.2 89 +11 +11 1015.6 1014.4
17 18.06 ЮЗ 11-12
{13}
15 км ясно +13.9 +12.3 90 +11 +11 1015.5 1014.2
18 18.06 ЮЗ 12-14
{14}
15 км ясно +14.0 +12.4 90 +11 +11 1015.5 1014.2 +13.7 +16.4
19 18.06 ЮЗ 10 15 км ясно +13.7 1015.5 1014.3
20 18.06 ЮЗ 9 15 км ясно +13.4 1015.7 1014.5
21 18.06 ЮЗ 8-8
{9}
14 км ясно +13.0 +12.2 95 +10 +10 1016.0 1014.8
22 18.06 ЮЗ 8-9
{9}
16 км ясно +13.1 +12.1 94 +10 +10 1016.3 1015.0
23 18.06 ЮЗ 7 15 км ясно +12.9 1016.2 1014.9
00 19.06 ЮЗ 7-8
{8}
10 км ясно +12.8 +12.3 97 +10 +10 1016.2 1014.9
01 19.06 ЮЗ 7 11 км ясно +12.9 1016.3 1015.0
02 19.06 ЮЗ 6-7
{8}
13 км 4/0
[]
+13.0 +12.4 96 +10 +10 1016.4 1015.1
03 19.06 ЮЗ 6-6
{7}
13 км {дымка} 1/0
[]
+13.1 +12.5 96 +11 +11 1016.3 1015.0
04 19.06 ЮЗ 5 18 км 1/0
[]
+13.4 1016.2 1015.0
05 19.06 ЮЗ 7 22 км ясно +13.7 1016.1 1014.8
06 19.06 ЮЗ 7-8
{9}
27 км {дымка} ясно +14.4 +12.7 90 +12 +14 1015.9 1014.6 +12.8 +14.4
07 19.06 ЮЗ 8-10
{10}
29 км ясно +14.7 +12.7 88 +12 +14 1015.8 1014.5
08 19.06 ЮЗ 8-10
{10}
30 км ясно +15.1 +12.7 86 +13 +14 1015.8 1014.6
09 19.06 ЮЗ 8-9
{11}
30 км ясно +15.7 +12.6 82 +14 +16 1015.9 1014.7
10 19.06 ЮЗ 7 30 км ясно +15.6 1015.9 1014.7
11 19.06 ЮЗ 9 30 км ясно +16.7 1015.8 1014.5
12 19.06 ЮЗ 9-10
{11}
30 км ясно +16.5 +12.4 77 +15 +16 1015.7 1014.4
13 19.06 ЮЗ 7 35 км ясно +16.6 1015.6 1014.3
14 19.06 ЮЗ 7 30 км ясно +17.4 1015.2 1014.0
15 19.06 ЮЗ 8-8
{9}
45 км 3/0
[]
+16.7 +12.2 75 +15 +16 1014.7 1013.5
16 19.06 ЮЗ 7 45 км ясно +16.4 1014.4 1013.1
17 19.06 ЮЗ 7-7
{7}
35 км ясно +15.7 +12.4 81 +14 +15 1014.1 1012.8
18 19.06 З 6-7
{8}
35 км ясно +15.8 +12.2 79 +14 +15 1014.0 1012.7 +14.4 +17.6
19 19.06 З 6 40 км ясно +15.8 1013.9 1012.7
20 19.06 ЮЗ 4 40 км ясно +14.7 1014.0 1012.8
21 19.06 ЮЗ 4-4
{5}
50 км ясно +14.1 +12.4 89 +13 +13 1014.2 1012.9
22 19.06 штиль 0-3
{4}
45 км ясно +14.7 +12.2 86 +14 +14 1014.1 1012.8
23 19.06 ЮЗ 4-5
{5}
45 км ясно +14.1 +12.2 88 +13 +13 1014.3 1013.1
00 20.06 Ю 5-5
{6}
45 км ясно +13.6 +12.4 92 +12 +12 1014.3 1013.1
01 20.06 Ю 4-4
{5}
45 км 1/0 50 м
[]
+14.2 +12.1 87 +13 +13 1014.2 1013.0
02 20.06 Ю 4-4
{4}
50 км 4/0 2000 м
[]
+13.9 +12.0 88 +12 +12 1014.3 1013.1
03 20.06 Ю 4-4
{4}
40 км 10/10 2000 м
[]
+13.9 +12.3 90 +12 +13 1014.2 1013.0
04 20.06 Ю 4-5
{5}
29 км 4/4 2000 м
[]
+14.0 +12.6 91 +12 +14 1014.0 1012.8
05 20.06 Ю 5 30 км ясно +14.4 1013.9 1012.7
06 20.06 Ю 3-3
{5}
30 км ясно +15.3 +12.2 82 +15 +20 1014.0 1012.7 +13.5 +16.1
07 20.06 ЮВ 2 30 км ясно +16.4 1013.9 1012.6
08 20.06 В 2 30 км ясно +16.9 1013.6 1012.3
09 20.06 В 3-3
{4}
27 км ясно +17.2 +13.4 78 +17 +28 1013.5 1012.3
10 20.06 В 3 30 км ясно +16.9 1013.3 1012.0
11 20.06 В 6 24 км ясно +16.2 1012.9 1011.7
12 20.06 В 6-6
{6}
30 км 5/5
[]
+16.7 +13.4 81 +16 +19 1012.7 1011.4
13 20.06 В 6-7
{7}
30 км 9/0
[]
+16.6 +14.0 85 +15 +18 1012.2 1011.0
14 20.06 В 7 27 км 3/3
[]
+16.1 1011.6 1010.3
15 20.06 В 7-8
{8}
30 км 6/4
[]
+16.1 +13.6 85 +15 +15 1010.9 1009.6
16 20.06 СВ 7 30 км 8/8 2000 м
[]
+16.1 1010.4 1009.2
17 20.06 В 5 30 км 6/6
[]
+15.7 1010.3 1009.0
18 20.06 В 5-6
{9}
30 км 1/1 2000 м
[]
+15.9 +13.8 87 +15 +15 1009.9 1008.7 +15.3 +17.4
19 20.06 В 5-6
{7}
35 км 1/0
[]
+15.8 +14.0 80 +17 +17 1010.0 1008.7
20 20.06 ЮВ 5 30 км 4/4 2000 м
[]
+15.9 1009.7 1008.5
21 20.06 Ю 5-6
{9}
30 км 9/9 1500 м
[]
+16.5 +14.1 86 +16 +16 1010.3 1009.0
22 20.06 Ю 2 30 км 3/3 2000 м
[]
+17.2 1010.0 1008.8
23 20.06 В 1-3
{3}
40 км ясно +16.4 +14.8 89 +17 +17 1009.6 1008.3
00 21.06 ЮВ 5-6
{6}
35 км ясно +15.5 +14.0 91 +14 +14 1009.6 1008.3
01 21.06 Ю 7 29 км ясно +15.7 1009.5 1008.3
02 21.06 Ю 6 22 км ясно +15.3 1009.3 1008.1
03 21.06 Ю 5-6
{6}
25 км ясно +15.2 +14.3 94 +14 +14 1009.2 1008.0
04 21.06 Ю 5-6
{6}
18 км ясно +15.0 +14.2 94 +14 +15 1009.4 1008.1
05 21.06 Ю 5 29 км ясно +15.6 1009.3 1008.1
06 21.06 Ю 4-5
{5}
29 км ясно +16.4 +14.3 87 +16 +20 1009.1 1007.8 +14.9 +18.0
07 21.06 ЮЗ 2 27 км ясно +17.8 1009.4 1008.2
08 21.06 Ю 2 21 км 4/4
[]
+17.3 1009.2 1008.0
09 21.06 Ю 4-4
{5}
22 км 1/1
[]
+18.0 +15.5 85 +18 +26 1009.7 1008.4
10 21.06 ЮЗ 5 25 км ясно +18.5 1009.8 1008.5
11 21.06 ЮЗ 6 17 км ясно +18.8 1010.0 1008.8
12 21.06 ЮЗ 7-8
{8}
14 км ясно +18.4 +15.8 85 +18 +22 1009.8 1008.6
13 21.06 ЮЗ 9 13 км ясно +17.5 1009.8 1008.5
14 21.06 ЮЗ 11 27 км ясно +17.2 1009.9 1008.6
15 21.06 ЮЗ 11-13
{14}
35 км ясно +17.0 +13.8 81 +15 +15 1009.9 1008.6
16 21.06 ЮЗ 13-14
{15}
30 км ясно +17.3 +13.0 78 +15 +15 1010.0 1008.7
17 21.06 ЮЗ 12 28 км ясно +15.6 1010.2 1008.9
18 21.06 ЮЗ 11-13
{14}
21 км ясно +15.0 +13.8 93 +12 +12 1010.1 1008.9 +15.0 +19.1
19 21.06 ЮЗ 10 23 км ясно +14.6 1010.5 1009.3
20 21.06 ЮЗ 10 22 км 1/0
[]
+14.5 1010.7 1009.5
21 21.06 ЮЗ 8-9
{11}
23 км 9/0
[]
+14.2 +13.3 94 +12 +12 1011.3 1010.0
22 21.06 ЮЗ 8 24 км 1/0
[]
+14.2 1011.4 1010.2
23 21.06 ЮЗ 7 19 км ясно +14.1 1011.9 1010.6
00 22.06 ЮЗ 6-7
{8}
20 км 6/3
[]
+14.0 +13.3 96 +12 +12 1011.6 1010.4
01 22.06 ЮЗ 6 17 км 9/9
[]
+13.9 1011.4 1010.2
02 22.06 ЮЗ 6 23 км ясно +13.9 1011.7 1010.5
03 22.06 ЮЗ 7-8
{9}
27 км 9/9
[]
+14.3 +13.3 94 +12 +12 1011.8 1010.6
04 22.06 ЮЗ 7 30 км 1/0
[]
+14.4 1011.9 1010.7
05 22.06 ЮЗ 7-7
{8}
26 км ясно +14.8 +13.4 92 +13 +14 1012.1 1010.9
06 22.06 З 6-6
{7}
35 км 9/6 1500 м
[]
+16.1 +12.3 78 +15 +15 1012.3 1011.1 +13.8 +16.3
07 22.06 З 5-7
{18}
45 км в посл. час дождь 9/0 2000 м
[]
+14.5 +11.8 83 +13 +16 1012.7 1011.5
08 22.06 ЮЗ 7 30 км ясно +14.9 1013.5 1012.3
09 22.06 ЮЗ 12-14
{14}
35 км {ливн. осадки, дождь} ясно +15.4 +11.3 77 +13 +13 1014.1 1012.9
10 22.06 ЮЗ 14 30 км ясно +15.3 1014.5 1013.2
11 22.06 ЮЗ 15 28 км ясно +15.1 1015.0 1013.8
12 22.06 ЮЗ 15-17
{18}
27 км {ливн. осадки, дождь} ясно +15.0 +11.2 78 +12 +12 1015.8 1014.5
13 22.06 ЮЗ 14 29 км ясно +14.6 1016.2 1015.0
14 22.06 ЮЗ 12 26 км 1/1 1000 м
[]
+14.5 1016.8 1015.6
15 22.06 ЮЗ 11-13
{13}
30 км {ливн. осадки, дождь} 3/3 1000 м
[]
+14.5 +11.4 82 +12 +12 1016.9 1015.6
16 22.06 ЮЗ 9 29 км 5/5 1500 м
[]
+14.8 1017.2 1016.0
17 22.06 З 9 50 км ясно +16.6 1017.8 1016.5
18 22.06 З 8-9
{11}
45 км {ливн. осадки, дождь} ясно +16.3 +9.0 62 +15 +15 1018.4 1017.2 +13.9 +17.2
19 22.06 З 7 45 км ясно +15.6 1018.7 1017.5
20 22.06 З 7-7
{8}
50 км ясно +15.2 +9.4 75 +12 +12 1019.2 1018.0
21 22.06 ЮЗ 9-10
{10}
22 км ясно +12.8 +11.9 94 +10 +10 1020.1 1018.8
22 22.06 ЮЗ 8-9
{10}
23 км 5/0
[]
+13.1 +11.8 93 +10 +10 1020.2 1019.0
23 22.06 ЮЗ 7 25 км 9/9
[]
+12.9 1020.5 1019.2
00 23.06 ЮЗ 6-7
{8}
25 км ясно +12.8 +11.8 94 +10 +10 1020.8 1019.5
01 23.06 З 6-7
{7}
22 км ясно +12.7 +11.9 95 +10 +10 1021.0 1019.8
02 23.06 З 6 22 км ясно +12.8 1021.4 1020.1
03 23.06 З 5-6
{6}
50 км ясно +13.8 +10.6 81 +12 +12 1022.0 1020.7
04 23.06 СЗ 5 45 км ясно +14.2 1022.2 1021.0
05 23.06 З 2 30 км ясно +14.8 1022.7 1021.5
06 23.06 ЮЗ 3-4
{4}
35 км ясно +14.4 +11.5 83 +13 +19 1023.0 1021.7 +12.6 +16.3
07 23.06 ЮЗ 4 30 км ясно +14.7 1022.9 1021.7
08 23.06 Ю 6 30 км ясно +14.5 1023.1 1021.8
09 23.06 Ю 6-7
{8}
30 км ясно +15.1 +12.8 86 +13 +19 1023.4 1022.2
10 23.06 Ю 7-8
{8}
29 км ясно +15.4 +13.0 86 +14 +18 1023.4 1022.2
11 23.06 Ю 7 35 км ясно +15.8 1023.4 1022.2
12 23.06 ЮЗ 4-6
{7}
27 км ясно +16.2 +12.0 76 +15 +24 1023.2 1022.0
13 23.06 ЮЗ 6 40 км 3/3
[]
+16.5 1023.2 1021.9
14 23.06 ЮЗ 6 35 км ясно +15.9 1023.1 1021.8
15 23.06 ЮЗ 8-8
{8}
35 км 1/1
[]
+15.5 +12.3 81 +14 +15 1022.7 1021.5
16 23.06 ЮЗ 8-8
{9}
35 км 9/0
[]
+15.0 +11.4 79 +13 +13 1022.5 1021.3
17 23.06 ЮЗ 8-9
{9}
40 км ясно +14.8 +11.4 82 +12 +12 1022.3 1021.0
18 23.06 ЮЗ 8-9
{9}
40 км 3/3
[]
+14.1 +11.6 85 +12 +12 1022.2 1021.0 +14.1 +16.6
19 23.06 ЮЗ 8 40 км 1/1
[]
+14.0 1022.3 1021.0
20 23.06 ЮЗ 7 40 км 6/6
[]
+13.9 1022.3 1021.1
21 23.06 З 7-8
{8}
30 км 10/10
[]
+13.6 +12.2 91 +11 +11 1022.8 1021.6
22 23.06 З 6 30 км 10/10
[]
+13.7 1023.0 1021.7
23 23.06 З 6 35 км 10/10
[]
+14.5 1023.5 1022.2
00 24.06 СЗ 7-8
{8}
50 км {дымка} 9/9
[]
+15.3 +11.4 78 +14 +14 1023.9 1022.6
01 24.06 СЗ 6 50 км 9/0
[]
+15.0 1024.1 1022.9
02 24.06 СЗ 6 45 км 1/0
[]
+14.9 1024.8 1023.5
03 24.06 С 4-5
{6}
45 км {дымка} 3/3
[]
+14.4 +11.6 83 +13 +13 1025.2 1024.0
04 24.06 С 4-6
{6}
45 км 3/3 2000 м
[]
+15.3 +10.1 69 +15 +16 1025.6 1024.3
05 24.06 СЗ 4 35 км 3/3 2000 м
[]
+15.7 1026.0 1024.8
06 24.06 СЗ 3-3
{4}
30 км {дымка} ясно +16.4 +10.0 66 +16 +22 1026.5 1025.3 +13.4 +16.8
07 24.06 З 4-4
{4}
35 км ясно +17.6 +10.6 64 +18 +25 1026.6 1025.4
08 24.06 ЮЗ 6-7
{7}
35 км ясно +16.4 +10.8 70 +15 +19 1027.0 1025.8
09 24.06 ЮЗ 7-7
{8}
35 км ясно +16.2 +11.6 74 +15 +18 1027.3 1026.1
10 24.06 ЮЗ 8 30 км 5/5 2000 м
[]
+16.3 1027.5 1026.2
11 24.06 ЮЗ 8 40 км 6/6 2000 м
[]
+16.6 1027.6 1026.3
12 24.06 ЮЗ 8-10
{11}
40 км 3/3 2000 м
[]
+16.3 +11.2 72 +15 +16 1027.6 1026.4
13 24.06 ЮЗ 8 40 км 9/9 2000 м
[]
+15.7 1027.6 1026.3
14 24.06 штиль 0-9
{10}
40 км 5/5 2000 м
[]
+15.5 +11.9 77 +14 +16 1027.5 1026.3
15 24.06 СЗ 8-10
{10}
45 км 3/3 2000 м
[]
+19.8 +8.2 47 +20 +21 1027.5 1026.2
16 24.06 З 6 45 км ясно +19.6 1027.5 1026.3
17 24.06 СЗ 6 50 км ясно +18.8 1027.6 1026.4
18 24.06 СЗ 7-7
{8}
50 км ясно +18.2 +7.9 51 +18 +18 1028.0 1026.8 +15.4 +20.6
19 24.06 СЗ 6 50 км ясно +17.5 1028.5 1027.2
20 24.06 СЗ 6 50 км ясно +16.9 1028.9 1027.7
21 24.06 СЗ 5-6
{6}
40 км ясно +15.7 +9.5 67 +15 +15 1029.4 1028.2
22 24.06 СЗ 4-5
{6}
35 км ясно +15.5 +8.9 65 +14 +14 1029.7 1028.5
23 24.06 СЗ 5 50 км ясно +15.1 1030.0 1028.7
00 25.06 СЗ 6-6
{7}
50 км ясно +14.4 +8.9 70 +13 +13 1030.0 1028.7
01 25.06 СЗ 4 50 км ясно +13.8 1030.0 1028.8
02 25.06 СЗ 4 50 км ясно +13.5 1030.1 1028.8
03 25.06 СЗ 4-4
{5}
40 км 6/0
[]
+13.7 +9.2 74 +12 +13 1030.4 1029.1
04 25.06 СЗ 3 30 км 5/1
[]
+13.6 1030.5 1029.2
05 25.06 С 2 35 км 3/3
[]
+14.8 1030.5 1029.2
06 25.06 З 2-3
{3}
40 км 3/3
[]
+15.5 +11.0 75 +15 +20 1030.7 1029.4 +13.4 +18.7
07 25.06 З 3 35 км ясно +15.8 1030.5 1029.2
08 25.06 ЮЗ 4-5
{5}
30 км 6/0
[]
+15.0 +11.2 77 +14 +20 1030.2 1028.9
09 25.06 ЮЗ 5-6
{6}
30 км ясно +15.7 +11.4 76 +15 +22 1030.2 1029.0
10 25.06 ЮЗ 5 40 км 9/6
[]
+15.5 1030.0 1028.7
11 25.06 ЮЗ 7 40 км 8/8
[]
+15.7 1029.6 1028.3
12 25.06 ЮЗ 8-9
{10}
30 км ясно +15.7 +11.2 75 +14 +16 1029.2 1027.9
13 25.06 ЮЗ 8 35 км ясно +15.9 1028.8 1027.5

 

Местоположение метеостанции Остров Хармая (Финляндия): широта 60.10 долгота 24.98 высота над уровнем моря 3 м.

В архиве по умолчанию представлена погода на Острове Хармая за последнюю неделю. Архивные данные за месяц целиком и за предыдущие месяцы, начиная с января 2011 года, Вы можете получить, выбрав интересующий диапазон дат из раскрывающегося списка и нажав кнопку "Ввод!".


*Определитесь, кто Вы:
робот инопланетянин человек

Внимание! Время в таблицах - всемирное. Для получения местного времени необходимо прибавить поправку, которая равна 1 ч.

Смотрите также архив погоды в соседних городах и на ближайших метеорологических станциях:

Погода в Хельсинки Кайсаниеми (Финляндия) (9 км)
Погода в Хельсинки университете (Финляндия) (11 км)
Погода в Эспо Тапиола (Финляндия) (14 км)
Погода на Хельсинском маяке (Финляндия) (17 км)
Погода в Хельсинки (Финляндия) (26 км)
Погода в Эспо Нууксио (Финляндия) (31 км)
Погода на Маяке Kalbadagrund (Финляндия) (37 км)
Погода на Эмасало (Финляндия) (38 км)
Погода в Килпилахти (Финляндия) (39 км)
Погода на Острове Мякилюото (Финляндия) (40 км)

Пояснения к столбцам:

Ветер - указаны скорость ветра в м/с - средняя за 10 мин, порывы в срок и между сроками (в фигурных скобках) и направление, откуда дует ветер: С - северный, СВ - северо-восточный, В - восточный, ЮВ - юго-восточный, Ю - южный, ЮЗ - юго-западный, З - западный, СЗ - северо-западный.
Видимость - горизонтальная дальность видимости в метрах или километрах. При видимости от 1 до 10 км при отсутствии осадков обычно наблюдается дымка, при ухудшении видимости до 1 км и менее - туман. В сухую погоду видимость может ухудшаться дымом, пылью или мглою.
Явления - указаны атмосферные явления, наблюдавшиеся в срок или в последний час перед сроком; фигурными скобками обозначены явления, наблюдавшиеся между сроками (за 1-3 часа до срока); квадратными скобками обозначены град или гололедные отложения с указанием их диаметра в мм.
Облачность - указаны через наклонную черту общая и нижняя облачность в баллах и высота нижней границы облаков в метрах; квадратными скобками обозначены формы облаков: Ci - перистые, Cs - перисто-слоистые, Cc - перисто-кучевые, Ac - высококучевые, As - высокослоистые, Sc - слоисто-кучевые, Ns - слоисто-дождевые, Cu - кучевые, Cb - кучево-дождевые. Подробнее классификацию облаков см. в Атласе облаков (PDF).
T - Температура воздуха - температура, измеренная на высоте 2 м над землей.
Td - Температура точки росы - температура, при понижении до которой содержащийся в воздухе водяной пар достигнет насыщения.
f - Относительная влажность воздуха - влажноcть воздуха, измеренная на высоте 2 м над землей.
Te - Эффективная температура - температура, которую ощущает одетый по сезону человек в тени. Характеристика душности погоды. При расчете учитывается влияние влажности воздуха и скорости ветра на теплоощущения человека.
Tes - Эффективная температура на солнце - температура, которую ощущает человек, с поправкой на солнечный нагрев. Характеристика знойности погоды. Зависит от высоты солнца над горизонтом, облачности и скорости ветра. Ночью, в пасмурную погоду, а также при ветре 12 м/с и более поправка равна нулю.
P - Атмосферное давление - приведенное к уровню моря атмосферное давление.
Po - Атмосферное давление - измеренное на уровне метеостанции атмосферное давление.
Tmin - Минимальная температура - минимум температуры воздуха на высоте 2 м над землей.
Tmax - Максимальная температура - максимум температуры воздуха на высоте 2 м над землей.
R - Количество осадков - Количество выпавших осадков за период времени, мм. При наведении курсора мыши на число - период времени, за который выпало указанное количество осадков.
R24 - Количество осадков - Количество выпавших осадков за 24 часа, мм.
S - Снежный покров - Высота снежного покрова, см. При наведении курсора мыши на число - состояние снежного покрова и степень покрытия местности в баллах.